sat.trackr.live / text

‹ back to catalog

STARLINK-5481

NORAD 57255 · 2023-094AP

PAYLOAD ACTIVE UNKNOWN

§ Identity

Operator
Country
US
Launch date
2023-07-07
Launch site
AFWTR
Launch vehicle
Mass (kg)
RCS (m²)

Purposes: comms

External: N2YO · Heavens-Above · Gunter

§ Orbital elements

Epoch: 2026-09-20T06:42:01.582272Z

Period
94.27 min
Inclination
43.0051°
Eccentricity
0.0001422
Mean motion
15.27578016 rev/d
Perigee alt
482.1 km
Apogee alt
484.0 km
Semi-major
6,861.2 km
B*
3.1416e-6
RAAN
0.6282°
Arg perigee
266.4473°
Mean anomaly
93.6216°
Rev number
17,700

§ Raw data

STARLINK-54811 57255U 23094AP  26263.27918498 -.00000176  00000+0  31416-5 0  99932 57255  43.0051   0.6282 0001422 266.4473  93.6216 15.27578016177002

JSON: /api/v1/satellites/57255 · /tle

For live sub-satellite position, see the globe view (requires WebGL).

§ Visibility from observer

Set your observer location to see the next 7 days of passes ≥ 10°. The values pass through the URL so the page stays shareable.

No JS? Fill the form by hand. The geolocation button needs JavaScript.